PRISMA-Tango

operational
NORAD ID: 36827 Int'l Des: 2010-028 Owner: SSC Country: S
LEOCIRCULARRETROGRADESSO

PRISMA-Tangoについて

説明を読み込み中...

リアルタイム位置

3D地球を読み込み中...

次回通過

高度履歴

Altitude vs Time

uPlot chart will show altitude changes over time

軌道要素

1 36827U 10028F 26061.13856067 .00000478 00000-0 14928-3 0 9994
2 36827 98.4455 272.7638 0040826 194.0114 165.9947 14.44739727687435
Epoch: Mar 2, 2026 • Age: 27 hours

現在のステータス

高度 767.9 km
速度 7.47 km/s
衛星直下点 73.31°N, 39.14°E
打ち上げ日 Jun 15, 2010
運用期間 15.7 years
タイプ other

技術仕様

分類 Payload
質量 40.00 kg
乾燥質量 40.00 kg
総質量 40.00 kg
長さ 0.30 m
直径 0.80 m
スパン 0.80 m
形状 Box
製造者 SSC
バスタイプ Prisma
フェーズステータス In Orbit
所有者/国 SSC/S

大規模コンステレーション

Loading constellations...